NOAA 12 DEB

Satellite information

Favourite Embed

Satellite Type and Status

DEBRISIN ORBIT

Key statistics

Satellite NOAA 12 DEB at a glance.

Uptime

12527

Days in orbit

Revolutions

≈ 14.4

Per day

Orbit

SSO

Sun Synchronous Orbit

Inclination

98.4

Latest

Satellite identification and parameters

Extended collection of information and parameters for NOAA 12 DEB.

Object identification

Identified? True

Debris? True

Object name: NOAA 12 DEB

International designator: 1991-032F

Object number (NORAD): 38546

Object ID (CCSDS): 38546

Country: UNITED STATES OF AMERICA (US)

Current information (Y/N): Y

RCS size: SMALL

Orbital parameters

Period: 100.067 minutes

Inclination: 98.3602 deg

SMA: 7139.816 km

Apoapsis: 770.735 km

Periapsis: 752.626 km

RAAN: 233.5135 deg

Eccentricy: 0.00126816

Argument of periapsis: 74.117 deg

Mean anomaly: 78.6843 deg

Mean motion: 14.39037991 rev/day

Mean motion (dot): 0.00001427 rev/day2

B* drag term: 0.0004753266 1/REarth

Two-line elements (TLE)

Creation date: Aug. 27, 2025, 8:01 p.m.

Reference frame: TEME

Reference center: EARTH

Epoch: Aug. 27, 2025, 10:58 a.m. UTC

TLE line 0: 0 NOAA 12 DEB

TLE line 1: 1 38546U 91032F 25239.45718265 .00001427 00000-0 47533-3 0 9999

TLE line 2: 2 38546 98.3602 233.5135 0012682 74.1170 78.6843 14.39037991716913

Live tracking on map

Real-time ground track for satellite NOAA 12 DEB.

In-orbit conjunctions

A list of the most updated potential collisions computed for object NOAA 12 DEB.

Target Orbit TCA Probability of collision Miss distance Type
CBERS 1 SSO 2024-09-12 14:14:17 0.0002673251 125.0 (m) PAYLOAD
FENGYUN 1C DEB SSO 2024-06-18 03:58:12 0.0001050183 343.0 (m) DEBRIS

Associated space launch

Fourth generation NOAA meteorological satellite

NOAA 12 DEB was lifted into orbit during the mission ‘Atlas E | NOAA 12’, on board a Atlas E space rocket.

The launch took place on May 14, 1991, 3:52 p.m. from Space Launch Complex 3W.

For more information about the launch, click the button.

Launch to space Atlas E | NOAA 12
Atlas E | NOAA 12

Agency: N/A

Status: Launch Successful

Launch date: May 14, 1991, 3:52 p.m. UTC

Rocket: Atlas E

Launch pad: Space Launch Complex 3W

Location: Vandenberg SFB, CA, USA

...

Latest news about this satellite

There are no fresh news available about this satellite. Check back as we update our databases every day.


Newsletter sign-up

Weekly statistics, charts and insights to help you stay on top of the space industry.